User: anonymous   Login
Location: Glencliff
(36.1226°N, 86.7183°W)
Time: 21:35:50
(UTC+00:00)
Language:

Cosmos 44 Rocket - Orbit

View from above orbital plane
View from above orbital plane
View from above satellite
View from above satellite

Ground track
Ground track

The orbit data is extracted from the following two-line orbital elements,

1   877U 64053B   19288.49749252 -.00000087  00000-0  68536-5 0  9999
2   877  65.0786 327.6900 0056216 149.6405 210.7970 14.59373167925594
Epoch (UTC): 15 October 2019 11:56:23
Eccentricity: 0.0056216
inclination: 65.0786°
perigee height: 655 km
apogee height: 735 km
right ascension of ascending node: 327.6900°
argument of perigee: 149.6405°
revolutions per day: 14.59373167
mean anomaly at epoch: 210.7970°
orbit number at epoch: 92559

The dashed part of the orbit path shows where the satellite is in the earth's shadow,  

DLR